Flag for U.S.A. Weather past 2 weeks in St. Paul, Minnesota, U.S.A.

Now
66 °F

Fog.


Feels Like: 66 °F
Forecast: 67 / 75 °F
Wind: 9 mph from Southeast

Location: St. Paul Downtown Holman Field

Current Time: Aug 28, 2014 at 9:17:58 PM

Latest Report: Aug 28, 2014 at 8:53 PM


Visibility: 5 mi

Pressure: 29.93 "Hg

Humidity: 96%

Dew point: 65 °F

Location of St. PaulLocation

Historic Weather in St. Paul — Graph

°F

St. Paul temperature yesterday

Maximum temperature yesterday: 76 °F (at 3:53 PM)
Minimum temperature yesterday: 59 °F (at 6:53 AM)
Average temperature yesterday: 68 °F

Past Weeks' High & Low Weather Summary

 TemperatureHumidityPressure
High86 °F (Aug 18, 4:53 PM)100% (Aug 17, 11:59 PM)30.24 "Hg (Aug 17, 11:59 PM)
Low56 °F (Aug 26, 6:53 AM)40% (Aug 14, 1:53 PM)29.62 "Hg (Aug 18, 7:53 PM)
Average72 °F76%29.92 "Hg
* Reported Aug 13 7:53 PM — Aug 28 7:53 PM, St. Paul, Weather by CustomWeather, © 2014

Note: Actual official high and low records may vary slightly from our data, if they occured in-between our weather recording intervals... More about our weather records

Advertising

St. Paul weather history for previous 24 hours

 ConditionsComfort  
Time TempWeatherWind HumidityBarometerVisibility
7:53 PM
Aug 28
67 °FOvercast.10 mph90%29.94 "Hg10 mi
6:53 PM68 °FMostly cloudy.13 mph84%29.95 "Hg10 mi
5:53 PM68 °FOvercast.13 mph87%29.96 "Hg10 mi
4:53 PM69 °FOvercast.13 mph84%29.97 "Hg10 mi
3:53 PM69 °FOvercast.10 mph84%29.98 "Hg10 mi
2:53 PM68 °FLight rain. Mostly cloudy.8 mph90%29.99 "Hg10 mi
2:01 PM70 °FLight rain. Mostly cloudy.10 mph76%30.02 "Hg10 mi
12:53 PM72 °FPassing clouds.8 mph68%30.03 "Hg10 mi
11:53 AM72 °FPassing clouds.10 mph68%30.04 "Hg10 mi
10:53 AM71 °FPassing clouds.8 mph68%30.06 "Hg10 mi
9:53 AM68 °FSunny.10 mph70%30.07 "Hg10 mi
8:53 AM65 °FSunny.12 mph73%30.08 "Hg10 mi
7:53 AM63 °FSunny.9 mph78%30.08 "Hg10 mi
6:53 AM61 °FClear.6 mph81%30.08 "Hg10 mi
5:53 AM61 °FClear.8 mph83%30.07 "Hg10 mi
4:53 AM62 °FClear.6 mph80%30.08 "Hg10 mi
3:53 AM62 °FClear.No wind78%30.09 "Hg10 mi
2:53 AM63 °FClear.3 mph78%30.11 "Hg10 mi
1:53 AM63 °FClear.8 mph81%30.13 "Hg10 mi
12:53 AM65 °FClear.No wind78%30.13 "Hg10 mi
11:53 PM
Aug 27
65 °FPassing clouds.3 mph78%30.14 "Hg10 mi
10:53 PM66 °FClear.5 mph75%30.13 "Hg10 mi
9:53 PM68 °FClear.No wind70%30.13 "Hg10 mi
Weather by CustomWeather, © 2014

See weather overviewHow to use our weather pages